Tracking 28799 objects as of 18-Apr-2024
HD Live streaming from Space Station
objects crossing your sky now

COSMOS 1275 DEB

Track COSMOS 1275 DEB now!
10-day predictions


NORAD ID: 12671
Int'l Code: 1981-053AB
Perigee: 860.5 km
Apogee: 894.3 km
Inclination: 82.9 °
Period: 102.4 minutes
Semi major axis: 7248 km
RCS: 0.0812 m2 (small)
Launch date: June 4, 1981
Source: Commonwealth of Independent States (former USSR) (CIS)
Launch site: PLESETSK MISSILE AND SPACE COMPLEX (PKMTR)

Note: This is SATELLITE DEBRIS
Your satellite tracking list
Your tracking list is empty




NASA's NSSDC Master Catalog

Two Line Element Set (TLE):
1 12671U 81053AB  24108.44173585  .00006275  00000-0  37532-2 0  9998
2 12671  82.9087  93.2550 0023301  84.5047 275.8784 14.06817486168432
Source of the keplerian elements: AFSPC